Wind_Speed
12 11 10 8 7 5 3 2 4 3 3 4 5 6 8 10 10 10 10 10 10 11 11 11 11 11 11 11 10 10 10 10 10 10 10 9 8 8 7 6 6 5 5 5
14 13 11 9 9 8 7 6 7 5 4 4 5 4 5 7 9 9 9 10 10 10 10 10 9 10 10 11 11 11 10 10 10 10 10 9 9 8 7 7 5 5 5 4
16 13 12 13 12 11 9 9 9 7 7 5 6 7 5 6 7 8 9 8 8 8 8 8 8 8 8 9 9 10 9 10 10 9 9 9 10 8 7 6 5 5 5 5
18 16 15 15 15 13 12 12 12 10 9 7 6 10 8 7 7 7 8 7 7 7 7 7 7 7 7 7 7 8 8 8 9 9 9 9 9 9 8 7 7 6 5 5
19 19 18 17 17 16 15 14 13 11 10 9 9 12 10 9 7 6 6 7 7 6 5 5 5 5 5 5 6 6 7 7 7 8 8 9 9 9 8 8 7 7 6 6
21 20 20 19 17 18 16 15 14 11 11 13 13 14 13 10 8 9 8 7 6 5 5 5 4 4 4 4 4 5 5 6 6 7 8 8 9 9 9 8 8 8 7 7
23 22 21 20 20 19 17 15 14 13 14 16 13 12 13 9 9 10 10 9 7 5 5 5 5 5 5 4 4 4 5 5 6 7 8 9 9 9 9 9 9 8 8 8
22 23 22 23 23 21 19 19 18 16 14 14 10 11 11 10 10 11 11 10 9 7 7 6 6 5 5 5 4 4 4 5 5 7 8 8 9 9 10 10 9 9 9 9
20 21 22 23 23 22 21 21 19 17 16 16 13 11 12 14 13 13 12 11 9 9 9 8 8 7 6 6 5 5 4 5 6 7 8 8 9 9 10 10 10 10 10 10
23 22 22 23 24 24 23 20 19 19 19 18 16 14 15 14 14 14 14 13 11 11 11 10 9 9 8 8 7 6 6 7 7 8 8 9 9 9 10 11 11 11 12 12
25 24 23 24 25 24 24 23 22 21 20 20 19 17 16 16 16 17 15 13 13 13 12 12 12 11 10 9 9 8 9 9 9 9 9 10 10 10 11 12 13 14 14 14
28 26 25 25 25 24 25 25 24 24 23 22 21 20 17 15 14 16 15 15 15 14 14 15 13 13 11 10 10 10 10 10 11 11 11 12 12 12 13 14 15 15 16 16
31 31 28 25 24 25 26 26 25 25 24 24 22 21 21 19 17 16 16 17 16 15 14 15 16 14 13 13 12 13 12 12 12 13 14 14 14 15 15 16 16 17 17 17
35 35 33 28 24 24 26 26 26 26 27 26 24 23 24 21 19 19 18 17 17 16 16 17 17 17 15 14 14 14 14 15 15 15 16 16 17 18 18 18 18 19 19 19
36 37 36 34 29 27 25 25 26 27 27 28 25 24 25 25 23 22 20 18 18 18 19 19 19 18 17 16 16 16 16 17 18 18 18 18 19 20 21 21 22 22 22 21
37 37 37 37 32 30 28 27 26 26 26 27 27 26 26 27 27 26 22 21 21 21 22 21 20 20 19 19 19 19 19 20 20 20 21 21 21 22 23 24 25 24 24 23
37 38 38 37 33 32 33 29 28 28 28 28 29 29 30 31 31 29 25 23 24 24 24 24 22 22 23 22 22 21 21 22 22 23 23 24 24 24 25 26 26 26 26 25
37 38 38 36 35 37 36 31 30 29 29 30 32 32 33 35 33 30 26 26 26 25 25 25 24 24 24 24 24 24 24 25 25 25 25 25 27 27 27 28 28 28 28 28
38 38 38 37 37 36 35 34 33 32 33 34 34 34 34 33 34 33 30 28 29 28 27 27 27 27 27 26 27 27 27 27 27 27 27 28 28 28 28 28 28 29 28 28
38 39 39 38 36 36 34 32 32 33 36 37 37 36 35 34 35 34 32 31 31 29 30 30 29 29 30 29 29 29 29 29 28 28 29 29 29 30 29 29 30 30 30 30
37 37 37 38 38 36 34 34 33 35 37 37 36 36 35 35 36 36 33 33 33 31 31 32 31 32 32 31 30 30 31 31 31 30 30 30 31 32 32 32 32 32 32 33
36 37 38 37 37 37 37 37 37 37 37 37 37 36 35 35 35 35 34 33 33 33 33 33 33 33 33 32 31 31 33 33 33 33 33 33 34 34 35 35 35 35 35 35
35 36 37 40 39 38 38 39 39 39 39 39 38 37 37 37 36 36 35 36 36 35 35 34 34 34 35 34 34 34 34 35 35 35 35 36 35 36 36 37 37 36 36 36
37 37 38 39 40 40 39 40 41 40 40 41 40 39 39 37 36 36 36 37 37 36 35 35 35 36 36 36 36 37 37 37 37 37 37 38 38 38 38 38 38 38 37 37
36 38 39 42 42 41 42 42 42 42 41 41 40 38 37 37 36 36 38 38 38 37 37 37 37 37 37 38 38 38 38 39 39 39 38 38 39 39 39 39 39 37 37 36
38 38 40 41 42 41 41 43 42 42 42 42 41 39 37 37 37 38 39 39 39 38 38 38 37 38 38 38 38 38 39 39 38 38 39 39 40 39 39 38 38 38 38 37
Wind_Direction
204 207 211 213 223 209 192 239 254 282 328 336 345 357 6 8 11 17 21 29 39 44 47 50 53 55 56 56 56 59 61 60 59 56 54 52 51 52 55 60 57 55 52 50
210 217 214 216 227 221 214 231 246 256 288 302 310 325 352 1 3 6 14 20 27 35 40 42 48 54 55 56 57 58 59 58 55 53 52 49 48 50 54 55 51 47 37 34
221 222 216 217 221 221 220 232 234 239 253 266 294 310 339 338 345 351 360 7 14 23 32 36 39 44 49 52 55 56 56 54 51 50 49 47 45 44 44 42 36 32 33 32
223 223 223 223 223 222 231 235 238 237 244 260 269 286 296 301 313 332 342 348 356 7 18 28 31 32 36 42 48 49 48 48 47 46 42 40 39 36 34 31 24 18 13 10
226 225 226 226 225 223 229 236 239 236 239 256 260 269 272 283 283 302 313 325 332 342 354 7 16 20 20 23 30 34 35 35 36 36 34 33 30 25 22 19 14 8 5 1
224 231 232 229 232 231 229 232 242 239 235 247 247 259 272 284 290 288 295 305 314 319 322 330 343 357 357 355 4 16 18 21 21 20 19 17 16 15 13 9 6 1 356 354
223 225 231 232 232 233 230 231 240 247 248 251 247 255 265 277 291 290 289 293 301 298 299 302 306 323 333 334 339 353 357 360 2 3 5 7 7 9 9 6 2 359 355 352
232 228 229 230 230 227 229 229 235 243 255 271 271 254 265 268 270 273 278 278 288 287 288 290 297 306 313 317 320 326 332 338 343 349 350 353 357 359 360 357 354 351 348 347
231 240 239 237 234 230 231 232 230 238 251 254 254 253 264 261 268 276 275 273 272 275 275 278 283 287 290 294 297 301 307 320 331 333 337 337 342 346 347 346 346 341 339 338
220 233 236 239 236 233 230 230 237 234 243 250 253 251 252 255 263 263 268 271 271 272 269 271 279 282 282 286 291 287 300 311 317 323 326 328 329 333 337 338 338 334 330 328
219 227 230 233 235 233 231 228 231 234 236 245 253 255 257 256 260 263 261 261 261 265 267 269 269 275 276 278 283 291 300 303 306 310 312 314 316 321 327 329 328 328 325 324
220 224 228 231 236 232 231 232 230 232 235 239 247 255 256 252 258 262 261 262 263 262 265 268 267 271 270 273 279 286 293 296 299 302 303 305 309 314 318 321 323 323 322 320
221 220 223 226 231 234 229 230 230 232 239 244 243 248 251 246 246 250 256 261 263 263 263 267 270 267 269 272 276 282 287 291 294 296 299 302 304 307 309 311 314 316 315 315
222 222 220 221 225 233 236 232 230 228 233 240 243 245 253 251 249 249 253 258 259 255 259 260 264 269 267 267 272 279 285 288 289 291 295 298 301 302 303 305 305 308 307 307
224 225 224 220 219 224 237 239 232 230 232 235 241 248 250 255 253 252 255 259 262 262 261 264 265 265 267 267 271 275 281 284 287 289 292 295 297 299 299 301 301 303 304 303
226 226 226 224 222 223 227 235 240 238 236 237 238 243 247 251 253 254 253 255 259 263 264 264 267 266 265 267 269 272 276 280 283 286 288 290 293 296 298 298 300 300 303 302
229 229 228 228 227 229 229 228 235 241 242 239 240 241 244 247 251 254 254 255 256 260 263 264 263 264 264 266 268 269 274 277 281 282 285 289 291 294 297 298 300 301 302 300
231 230 230 231 228 230 230 226 229 233 237 239 241 242 246 249 251 253 255 256 259 259 260 262 262 261 263 264 267 270 274 277 279 281 283 288 290 291 294 295 296 298 299 300
233 232 231 232 234 236 235 231 231 231 233 236 240 243 248 251 253 252 251 253 256 259 259 260 261 261 264 266 267 269 272 274 278 280 282 285 288 288 290 292 293 295 299 299
235 234 233 233 235 236 237 237 235 236 238 238 240 243 245 248 250 252 253 254 256 256 257 259 260 261 263 265 266 269 271 274 277 282 284 285 288 289 289 291 293 294 296 297
235 235 235 235 236 237 235 237 238 237 239 242 243 246 246 247 250 252 256 258 257 257 258 258 259 261 261 263 265 268 272 276 279 282 283 284 285 287 289 291 292 293 294 295
234 235 235 235 235 237 236 236 236 239 240 243 244 245 248 251 252 253 255 258 258 259 258 258 260 261 260 262 266 267 271 275 278 281 282 284 285 286 288 291 292 292 293 292
232 233 235 236 235 236 238 238 237 240 243 243 244 246 249 251 253 254 255 257 258 258 259 258 259 261 262 264 266 269 271 274 276 279 281 282 284 285 286 288 290 291 291 289
232 232 233 236 236 235 237 239 239 240 241 244 245 248 249 250 251 252 254 255 257 259 260 259 259 261 263 265 267 270 273 275 277 278 279 280 281 283 285 287 289 289 289 289
232 232 234 237 239 239 237 239 240 243 244 244 245 247 249 251 251 252 253 254 256 257 259 259 259 260 262 265 268 270 272 274 276 277 278 279 280 283 285 286 288 289 288 289
234 236 235 237 239 240 241 240 240 242 244 245 245 246 248 249 250 251 253 254 255 257 259 259 260 262 264 267 269 270 271 273 275 275 276 278 280 282 284 286 287 287 287 287
Height
5905 5908 5909 5912 5914 5915 5917 5919 5919 5918 5919 5919 5917 5916 5914 5913 5911 5910 5908 5907 5906 5905 5904 5903 5902 5901 5900 5900 5899 5899 5898 5898 5898 5897 5897 5896 5896 5895 5895 5894 5894 5893 5894 5894
5904 5906 5909 5912 5914 5915 5917 5919 5919 5920 5919 5920 5918 5916 5915 5914 5913 5912 5910 5909 5908 5907 5906 5905 5904 5904 5903 5902 5901 5901 5901 5900 5900 5899 5898 5898 5897 5897 5896 5896 5896 5895 5895 5895
5901 5905 5907 5910 5913 5914 5916 5918 5918 5919 5919 5918 5919 5917 5915 5915 5914 5913 5912 5911 5909 5909 5908 5907 5906 5905 5905 5904 5904 5903 5903 5902 5901 5901 5901 5900 5899 5899 5898 5898 5897 5896 5896 5896
5899 5902 5904 5908 5910 5912 5915 5915 5916 5917 5917 5917 5918 5917 5915 5914 5914 5913 5913 5912 5910 5910 5909 5908 5907 5907 5906 5906 5906 5905 5905 5904 5903 5903 5902 5902 5901 5900 5900 5899 5898 5897 5897 5896
5896 5899 5901 5904 5908 5910 5912 5913 5914 5915 5916 5916 5916 5916 5914 5912 5912 5912 5912 5912 5911 5910 5909 5909 5909 5908 5907 5907 5907 5906 5906 5905 5905 5904 5904 5903 5902 5902 5901 5900 5899 5898 5897 5896
5893 5895 5898 5902 5905 5906 5908 5911 5912 5912 5914 5914 5914 5914 5912 5911 5911 5911 5911 5911 5910 5910 5909 5909 5909 5909 5908 5908 5907 5907 5907 5906 5906 5905 5905 5904 5903 5902 5901 5900 5899 5898 5897 5896
5888 5891 5895 5898 5901 5903 5906 5908 5910 5910 5910 5910 5911 5911 5911 5911 5911 5911 5911 5910 5909 5909 5909 5909 5908 5908 5908 5908 5908 5907 5907 5907 5906 5906 5905 5904 5904 5903 5902 5901 5899 5898 5897 5896
5884 5888 5891 5894 5896 5900 5902 5905 5907 5908 5909 5908 5908 5909 5910 5910 5910 5910 5909 5908 5908 5908 5908 5908 5908 5908 5908 5907 5907 5907 5907 5906 5906 5905 5905 5904 5904 5903 5902 5900 5899 5898 5897 5896
5882 5885 5888 5889 5892 5895 5898 5900 5903 5906 5906 5908 5907 5908 5909 5908 5909 5908 5907 5906 5906 5907 5907 5906 5907 5907 5907 5907 5906 5906 5906 5906 5906 5905 5904 5904 5903 5902 5901 5900 5898 5897 5896 5895
5877 5881 5884 5885 5887 5890 5894 5897 5899 5900 5902 5903 5904 5905 5906 5905 5906 5906 5906 5905 5904 5904 5904 5904 5905 5905 5905 5905 5904 5904 5905 5904 5904 5904 5903 5903 5902 5901 5900 5899 5898 5896 5895 5893
5871 5875 5879 5881 5882 5885 5889 5892 5894 5896 5899 5900 5901 5902 5902 5902 5902 5903 5903 5903 5903 5902 5902 5901 5902 5903 5903 5903 5903 5904 5904 5903 5903 5903 5902 5901 5901 5900 5899 5898 5896 5895 5893 5892
5864 5869 5872 5875 5878 5881 5884 5886 5890 5892 5894 5895 5897 5900 5897 5897 5898 5899 5900 5900 5900 5899 5899 5899 5899 5900 5899 5900 5901 5901 5902 5902 5901 5901 5901 5900 5899 5898 5897 5896 5894 5893 5891 5890
5857 5861 5865 5869 5874 5875 5877 5880 5884 5888 5890 5891 5892 5896 5892 5893 5894 5894 5896 5896 5897 5896 5896 5896 5896 5896 5897 5898 5898 5899 5899 5899 5899 5898 5898 5897 5896 5896 5895 5893 5892 5890 5888 5887
5848 5852 5857 5863 5867 5870 5871 5874 5878 5881 5884 5885 5887 5889 5887 5887 5888 5890 5891 5891 5892 5893 5893 5892 5891 5892 5894 5895 5895 5896 5896 5896 5896 5895 5895 5894 5894 5893 5891 5890 5888 5887 5885 5883
5839 5844 5848 5853 5858 5863 5865 5868 5871 5874 5877 5880 5882 5883 5882 5882 5883 5884 5885 5886 5887 5888 5889 5889 5889 5888 5889 5890 5891 5892 5892 5892 5892 5891 5891 5890 5890 5889 5888 5886 5884 5882 5880 5878
5830 5835 5840 5844 5849 5854 5857 5862 5865 5868 5871 5874 5875 5876 5876 5876 5877 5878 5879 5882 5883 5884 5884 5884 5885 5884 5885 5886 5887 5888 5888 5888 5888 5887 5887 5886 5885 5884 5883 5881 5879 5877 5875 5874
5822 5827 5831 5836 5842 5845 5849 5854 5859 5862 5864 5867 5869 5869 5868 5869 5870 5872 5873 5875 5877 5878 5879 5879 5879 5880 5881 5882 5882 5882 5883 5883 5883 5882 5882 5880 5879 5878 5877 5876 5874 5872 5871 5869
5814 5819 5823 5829 5834 5836 5843 5847 5850 5853 5856 5859 5860 5861 5861 5862 5863 5865 5866 5869 5871 5872 5873 5874 5874 5875 5875 5876 5877 5877 5877 5877 5877 5877 5876 5875 5873 5872 5871 5870 5868 5867 5865 5863
5806 5810 5815 5820 5823 5828 5834 5837 5841 5844 5846 5850 5851 5853 5854 5856 5857 5858 5860 5862 5864 5865 5866 5867 5868 5869 5869 5870 5870 5871 5871 5871 5870 5870 5869 5868 5866 5865 5864 5863 5862 5860 5859 5857
5796 5801 5806 5810 5814 5819 5826 5829 5831 5835 5836 5839 5841 5843 5846 5848 5849 5851 5853 5855 5857 5857 5859 5860 5861 5862 5863 5863 5864 5864 5864 5864 5863 5863 5862 5861 5860 5858 5857 5856 5855 5853 5851 5850
5787 5791 5795 5801 5804 5809 5815 5818 5822 5825 5827 5829 5832 5835 5837 5839 5841 5844 5845 5846 5847 5849 5851 5852 5853 5855 5855 5855 5855 5856 5857 5856 5856 5855 5855 5854 5852 5851 5850 5848 5847 5845 5844 5842
5779 5783 5787 5791 5795 5802 5804 5807 5811 5813 5817 5820 5822 5825 5828 5831 5833 5834 5836 5837 5839 5840 5842 5844 5845 5846 5847 5847 5847 5848 5848 5849 5848 5848 5847 5846 5844 5843 5841 5840 5839 5837 5835 5833
5770 5775 5779 5783 5787 5790 5793 5796 5800 5803 5807 5810 5813 5817 5820 5822 5824 5826 5828 5829 5830 5832 5833 5835 5836 5837 5838 5839 5840 5840 5840 5840 5840 5839 5839 5838 5836 5835 5833 5832 5830 5828 5826 5824
5760 5765 5769 5771 5775 5779 5782 5784 5788 5791 5795 5800 5804 5807 5810 5813 5815 5817 5819 5820 5822 5823 5825 5826 5828 5829 5830 5830 5831 5831 5831 5831 5831 5830 5829 5829 5827 5826 5824 5823 5821 5819 5817 5815
5749 5754 5757 5761 5765 5768 5771 5775 5779 5783 5786 5791 5794 5798 5800 5803 5806 5808 5809 5810 5812 5814 5815 5817 5818 5819 5820 5821 5821 5821 5821 5821 5821 5820 5819 5818 5818 5816 5815 5813 5811 5810 5808 5805
5741 5744 5748 5751 5756 5758 5761 5766 5770 5773 5777 5781 5784 5788 5790 5793 5796 5798 5799 5801 5803 5804 5805 5805 5807 5808 5810 5811 5811 5811 5811 5811 5811 5810 5809 5808 5807 5806 5804 5803 5801 5799 5798 5796